Lexington Weather

Lexington, Massachusetts, USA

34°F
4/16/2021 11:16am 
  • Lexington Conditions: Light snow, Mist, Overcast
  • Temperature: 34.0°F / 1.1°C 
  • Dew Point: 32.7°F 
  • Relative Humidity: 95
  • Wind: Wind from N N Calm, 10-min avg: 1 mph, gust: 4 mph
  • Barometer: 29.46 inFalling 0.03  inHg/hr Falling Slowly
  • Visibility: ¾ mile
  • Snow Today: 1.7 in
  •   

Regional Weather Roundup
for Boston / Norton, MA

        
000
ASUS41 KBOX 100005
RWRBOX

REGIONAL WEATHER ROUNDUP
NATIONAL WEATHER SERVICE BOSTON/NORTON MA
800 PM EDT FRI APR 09 2021

NOTE:  "FAIR" INDICATES FEW OR NO CLOUDS BELOW 12,000 FEET WITH NO 
SIGNIFICANT WEATHER AND/OR OBSTRUCTIONS TO VISIBILITY.

MAZALL-100100-
EASTERN MASSACHUSETTS
  
CITY           SKY/WX    TMP DP  RH WIND       PRES   REMARKS
BOSTON         MOCLDY    58  41  53 S14       30.11R                  
6HR MIN TEMP:  51; 6HR MAX TEMP:  59;                                

BEVERLY        CLEAR     50  43  77 SE7       30.10R                  
LAWRENCE       CLEAR     54  43  66 SE3       30.10R                  
BEDFORD        PTCLDY    57  44  62 SE6       30.08R                  
BLUE HILL        N/A     54  41  61 S16       30.10R                  
NORWOOD        PTCLDY    56  42  59 S6        30.11R                  
MARSHFIELD     PTCLDY    54  45  71 S8        30.12R                  
PLYMOUTH       PTCLDY    49  42  77 S5        30.13R                  
TAUNTON        PTCLDY    50  42  74 S6        30.13R                  
NEW BEDFORD    PTCLDY    45  42  89 S7        30.14R                  
$$

MAZALL-100100-
CAPE COD AND THE ISLANDS
  
CITY           SKY/WX    TMP DP  RH WIND       PRES   REMARKS
FALMOUTH       CLOUDY    43  43 100 W9        30.16R FOG              
HYANNIS        PTCLDY    49  44  83 SW10      30.13S                  
CHATHAM        PTCLDY    46  43  89 SW6       30.16S                  
PROVINCETOWN   CLEAR     49  43  80 S9        30.15R                  
NANTUCKET      FOG       41  41 100 W7        30.16R VSB 1/2          
MARTHAS VNYRD  MOCLDY    43  41  93 SW5       30.16R                  
$$
 
MAZALL-100100-
CENTRAL AND WESTERN MASSACHUSETTS
  
CITY           SKY/WX    TMP DP  RH WIND       PRES   REMARKS
WORCESTER      PTCLDY    60  41  49 SW13      30.09R                  
6HR MIN TEMP:  60; 6HR MAX TEMP:  68;                                

FITCHBURG      PTCLDY    64  45  49 SE10      30.07R                  
ORANGE         PTCLDY    59  41  51 S8        30.07R                  
SPRINGFIELD    MOCLDY    60  41  50 S8        30.07S                  
WESTFIELD      MOCLDY    60  42  51 S8        30.08R                  
NORTH ADAMS    PTCLDY    66  39  37 CALM      30.05R                  
PITTSFIELD     CLOUDY    61  40  45 SW9       30.06R                  
$$
 
RIZALL-100100-
RHODE ISLAND
  
CITY           SKY/WX    TMP DP  RH WIND       PRES   REMARKS
PROVIDENCE     MOCLDY    50  43  77 S8        30.13S                  
6HR MIN TEMP:  50; 6HR MAX TEMP:  61;                                

NEWPORT        FOG       43  42  97 S7        30.14S VSB 1/2          
BLOCK ISLAND   LGT RAIN  42  41  96 SW13      30.16S VSB 1/2          
SMITHFIELD     PTCLDY    52  44  74 S3        30.12S                  
WESTERLY       MOCLDY    42  41  96 S6        30.15R                  
$$
 
CTZALL-100100-
CONNECTICUT
  
CITY           SKY/WX    TMP DP  RH WIND       PRES   REMARKS
BRADLEY INTL   MOCLDY    58  43  57 S13       30.09S                  
6HR MIN TEMP:  58; 6HR MAX TEMP:  71;                                

HARTFORD       MOCLDY    57  44  62 S8        30.11R                  
BRIDGEPORT     CLOUDY    50  45  83 SW7       30.14S                  
DANBURY        MOCLDY    56  44  64 S7        30.13S                  
GROTON         MOCLDY    44  43  96 S7        30.14S                  
NEW HAVEN      CLOUDY    51  46  83 S5        30.14S                  
CHESTER        FAIR      48  45  87 SW3       30.14S                  
MERIDEN        CLOUDY    53  43  68 S8        30.13S                  
WILLIMANTIC    MOCLDY    56  44  64 S7        30.11S                  
OXFORD         CLOUDY    52  47  83 S7        30.13S                  
$$

MEZ002-015-021-024-NHZ003-005-008-011-012-014-VTZ005-008-100100-
NORTHERN NEW ENGLAND
  
CITY           SKY/WX    TMP DP  RH WIND       PRES   REMARKS
PORTLAND ME    PTCLDY    48  43  82 SE6       30.10R                  
6HR MIN TEMP:  48; 6HR MAX TEMP:  58;                                

BANGOR ME      PTCLDY    55  44  66 S8        30.07R                  
CONCORD NH     CLEAR     62  45  53 SE8       30.06R                  
MANCHESTER NH  PTCLDY    61  43  51 SE12      30.06R                  
NASHUA NH      CLEAR     60  45  57 SE8       30.08R                  
PORTSMOUTH NH  PTCLDY    50  41  73 SE9       30.10S                  
JAFFREY NH     PTCLDY    60  43  53 S5        30.07R                  
KEENE NH       CLEAR     62  41  46 S3        30.05S                  
BURLINGTON VT  PTCLDY    68  40  35 S6        29.98S                  
MT. WASHINGTON NOT AVBL                                               
$$

NYZ052-076-100100-
EASTERN NEW YORK
  
CITY           SKY/WX    TMP DP  RH WIND       PRES   REMARKS
ALBANY         MOCLDY    63  41  44 S15       30.05R                  
6HR MIN TEMP:  63; 6HR MAX TEMP:  70;                                

NEW YORK CITY  CLOUDY    49  44  83 S9        30.14S                  
6HR MIN TEMP:  50; 6HR MAX TEMP:  56; 6HR PCP: TRACE;                

$$
 
ANZALL-100100-
MARINE OBSERVATIONS
  
STATION/POSITION TIME  TEMP    WIND        PRES    VSBY  WAVE
                       AIR SEA DIR/SP/G                  HT/PER
                 (UTC) (F)     (DEG/KT/KT) (MB)    (MI)  (FT/S)
BOSTON BUOY      2350   48 44  160/ 14/ 16 1019.9F         4/ 8
BUZZARDS BAY     2300          230/ 15/ 16 1021.8S
NANTUCKET SOUND  2350      46                N/A           1
MASS BAY-STELLWA 2304   47     150/ 12/ 14 1018.6F  1 7/8  4/ 8
ISLE OF SHOALS   2300   47     170/ 15/ 15 1018.8R
S OF BLOCK IS    2326      46                N/A           3/11
$$

......................KEY.........................
  SKY/WX - SKY CONDITION/PRESENT WEATHER
  TMP    - TEMPERATURE IN FAHRENHEIT
  DWPT   - DEWPOINT IN FAHRENHEIT
  RH     - RELATIVE HUMIDITY IN PERCENT
  WIND   - DIRECTION AND SPEED IN MPH
  PRES   - MEAN SEA LEVEL PRESSURE IN INCHES OF HG
  WCI    - WIND CHILL INDEX
  VSB    - VISIBILITY IN MILES
  HX     - HEAT INDEX
  TC     - TEMPERATURE IN CELSIUS
  VRB    - VARIABLE WIND DIRECTION
  N/A    - NOT AVAILABLE
  
      

Other recent Regional Weather Roundups

Fri Apr 16, 11:04am

Fri Apr 16, 10:05am

Fri Apr 16, 9:04am

Fri Apr 16, 8:04am

Fri Apr 16, 7:04am

Fri Apr 16, 6:04am

Fri Apr 16, 5:04am

Fri Apr 16, 4:04am

Fri Apr 16, 3:04am

Fri Apr 16, 2:04am

Fri Apr 16, 1:04am

Fri Apr 16, 12:04am

Thu Apr 15, 11:05pm

Thu Apr 15, 10:04pm

Thu Apr 15, 9:04pm

Thu Apr 15, 8:04pm

Thu Apr 15, 7:05pm

Thu Apr 15, 6:04pm

Thu Apr 15, 5:05pm

Thu Apr 15, 4:04pm

Thu Apr 15, 3:05pm

Thu Apr 15, 2:04pm

Thu Apr 15, 1:05pm

Thu Apr 15, 12:04pm

Thu Apr 15, 11:04am

Thu Apr 15, 10:05am

Thu Apr 15, 9:04am

Thu Apr 15, 8:04am

Thu Apr 15, 7:04am

Thu Apr 15, 6:04am

Thu Apr 15, 5:04am

Thu Apr 15, 4:04am

Thu Apr 15, 3:04am

Thu Apr 15, 2:04am

Thu Apr 15, 1:04am

Thu Apr 15, 12:04am

Wed Apr 14, 11:04pm

Wed Apr 14, 10:04pm

Wed Apr 14, 9:04pm

Wed Apr 14, 8:04pm

Wed Apr 14, 7:04pm

Wed Apr 14, 6:04pm

Wed Apr 14, 5:05pm

Wed Apr 14, 4:04pm

Wed Apr 14, 3:05pm

Wed Apr 14, 2:04pm

Wed Apr 14, 1:05pm

Wed Apr 14, 12:04pm

Wed Apr 14, 11:04am

Wed Apr 14, 10:04am

Wed Apr 14, 9:04am

Wed Apr 14, 8:04am

Wed Apr 14, 7:04am

Wed Apr 14, 6:04am

Wed Apr 14, 5:04am

Wed Apr 14, 4:04am

Wed Apr 14, 3:04am

Wed Apr 14, 2:04am

Wed Apr 14, 1:04am

Wed Apr 14, 12:04am

Tue Apr 13, 11:04pm

Tue Apr 13, 10:05pm

Tue Apr 13, 9:05pm

Tue Apr 13, 8:05pm

Tue Apr 13, 7:04pm

Tue Apr 13, 6:04pm

Tue Apr 13, 5:05pm

Tue Apr 13, 4:04pm

Tue Apr 13, 3:04pm

Tue Apr 13, 2:05pm

Tue Apr 13, 1:04pm

Tue Apr 13, 12:05pm

Tue Apr 13, 11:05am

Tue Apr 13, 10:04am

Tue Apr 13, 9:04am

Tue Apr 13, 8:04am

Tue Apr 13, 7:04am

Tue Apr 13, 6:04am

Tue Apr 13, 5:04am

Tue Apr 13, 4:04am

Tue Apr 13, 3:04am

Tue Apr 13, 2:04am

Tue Apr 13, 1:04am

Tue Apr 13, 12:05am

Mon Apr 12, 11:04pm

Mon Apr 12, 10:04pm

Mon Apr 12, 9:04pm

Mon Apr 12, 8:04pm

Mon Apr 12, 7:05pm

Mon Apr 12, 6:04pm

Mon Apr 12, 5:04pm

Mon Apr 12, 4:04pm

Mon Apr 12, 3:05pm

Mon Apr 12, 2:04pm

Mon Apr 12, 1:05pm

Mon Apr 12, 12:04pm

Mon Apr 12, 11:04am

Mon Apr 12, 10:04am

Mon Apr 12, 9:04am

Mon Apr 12, 8:04am

Mon Apr 12, 7:04am

Mon Apr 12, 6:04am

Mon Apr 12, 5:04am

Mon Apr 12, 4:04am

Mon Apr 12, 3:04am

Mon Apr 12, 2:04am

Mon Apr 12, 1:05am

Mon Apr 12, 12:04am

Sun Apr 11, 11:04pm

Sun Apr 11, 10:04pm

Sun Apr 11, 9:04pm

Sun Apr 11, 8:04pm

Sun Apr 11, 7:04pm

Sun Apr 11, 6:05pm

Sun Apr 11, 5:05pm

Sun Apr 11, 4:04pm

Sun Apr 11, 3:05pm

Sun Apr 11, 2:05pm

Sun Apr 11, 1:05pm

Sun Apr 11, 12:04pm

Sun Apr 11, 11:05am

Sun Apr 11, 10:05am

Sun Apr 11, 9:04am

Sun Apr 11, 8:04am

Sun Apr 11, 7:04am

Sun Apr 11, 6:04am

Sun Apr 11, 5:04am

Sun Apr 11, 4:04am

Sun Apr 11, 3:04am

Sun Apr 11, 2:04am

Sun Apr 11, 1:05am

Sun Apr 11, 12:04am

Sat Apr 10, 11:05pm

Sat Apr 10, 10:04pm

Sat Apr 10, 9:04pm

Sat Apr 10, 8:04pm

Sat Apr 10, 7:05pm

Sat Apr 10, 6:04pm

Sat Apr 10, 5:04pm

Sat Apr 10, 4:04pm

Sat Apr 10, 3:04pm

Sat Apr 10, 2:05pm

Sat Apr 10, 1:04pm

Sat Apr 10, 12:04pm

Sat Apr 10, 11:04am

Sat Apr 10, 10:04am

Sat Apr 10, 9:04am

Sat Apr 10, 8:04am

Sat Apr 10, 7:04am

Sat Apr 10, 6:04am

Sat Apr 10, 5:04am

Sat Apr 10, 4:04am

Sat Apr 10, 3:04am

Sat Apr 10, 2:04am

Sat Apr 10, 1:05am

Sat Apr 10, 12:04am

Fri Apr 9, 11:04pm

Fri Apr 9, 10:05pm

Fri Apr 9, 9:04pm

Fri Apr 9, 7:05pm

Fri Apr 9, 6:04pm

Fri Apr 9, 5:04pm

Fri Apr 9, 4:05pm

Fri Apr 9, 3:05pm

Fri Apr 9, 2:04pm

Fri Apr 9, 1:04pm

Fri Apr 9, 12:04pm

Meta data:

ID: 98e83063-0ac4-4cb0-9f9b-b92ed8c032d9
Link: https://api.weather.gov/products/98e83063-0ac4-4cb0-9f9b-b92ed8c032d9